This is the latest recevied weather packets stored in our database for station/object KC4KQE. If no packets are shown the sender has not sent any weather packets the latest 10 day(s).
| Time | Temp. | Humidity | Pressure | Rain* | Wind** | Luminosity | Snow |
|---|---|---|---|---|---|---|---|
| 1777732758 | 25.56° C | 28% | 1014.2 hPa | 0 mm | - | 301 W/m² | - |
| 1777732460 | 25° C | 29% | 1014.1 hPa | 0 mm | - | 287 W/m² | - |
| 1777732157 | 25° C | 30% | 1014.1 hPa | 0 mm | - | 272 W/m² | - |
| 1777731860 | 24.44° C | 31% | 1014.1 hPa | 0 mm | - | 253 W/m² | - |
| 1777731557 | 24.44° C | 31% | 1014 hPa | 0 mm | - | 230 W/m² | - |
| 1777731257 | 24.44° C | 30% | 1014 hPa | 0 mm | - | 221 W/m² | - |
| 1777730957 | 23.89° C | 31% | 1013.9 hPa | 0 mm | - | 207 W/m² | - |
| 1777730657 | 23.89° C | 31% | 1013.8 hPa | 0 mm | - | 188 W/m² | - |
| 1777730357 | 23.89° C | 30% | 1013.8 hPa | 0 mm | - | 176 W/m² | - |
| 1777730058 | 23.33° C | 29% | 1013.7 hPa | 0 mm | - | 160 W/m² | - |
| 1777729757 | 23.33° C | 29% | 1013.6 hPa | 0 mm | - | 148 W/m² | - |
| 1777729457 | 23.33° C | 27% | 1013.5 hPa | 0 mm | - | 128 W/m² | - |
| 1777729157 | 23.33° C | 28% | 1013.4 hPa | 0 mm | - | 113 W/m² | - |
| 1777728857 | 22.78° C | 29% | 1013.4 hPa | 0 mm | - | 97 W/m² | - |
| 1777728558 | 22.22° C | 28% | 1013.3 hPa | 0 mm | - | 76 W/m² | - |
| 1777728258 | 22.22° C | 28% | 1013.2 hPa | 0 mm | - | 58 W/m² | - |
| 1777727957 | 22.78° C | 28% | 1013.1 hPa | 0 mm | - | 26 W/m² | - |
| 1777727657 | 22.78° C | 28% | 1013 hPa | 0 mm | - | 23 W/m² | - |
| 1777727357 | 22.22° C | 28% | 1012.9 hPa | 0 mm | - | 19 W/m² | - |
| 1777727057 | 22.22° C | 28% | 1012.8 hPa | 0 mm | - | 18 W/m² | - |
| 1777726757 | 22.22° C | 28% | 1012.8 hPa | 0 mm | - | 14 W/m² | - |
| 1777726457 | 22.22° C | 26% | 1012.7 hPa | 0 mm | - | 11 W/m² | - |
| 1777726157 | 22.22° C | 25% | 1012.7 hPa | 0 mm | - | 7 W/m² | - |
| 1777725857 | 22.78° C | 23% | 1012.5 hPa | 0 mm | - | 5 W/m² | - |
| 1777725557 | 23.33° C | 23% | 1012.5 hPa | 0 mm | - | 0 W/m² | - |
* Rain latest hour (hover to see other rain measurements)
** Current wind speed in m/s (hover to see current wind gust speed)